Weather History for Kenai, AK

Change the Weather History Date:

Wednesday, March 12, 2014

  Actual Average Record
Temperature  
Mean Temperature 29 °F -  
Max Temperature 34 °F 33 °F 45 °F (1981)
Min Temperature 25 °F 14 °F -22 °F (1972)
Degree Days  
Heating Degree Days 36    
Moisture  
Dew Point 26 °F    
Average Humidity 87    
Maximum Humidity 100    
Minimum Humidity 70    
Precipitation  
Precipitation 0.04 in - - ()
Sea Level Pressure  
Sea Level Pressure 29.35 in    
Wind  
Wind Speed 11 mph (SSE)    
Max Wind Speed 25 mph    
Max Gust Speed 33 mph    
Visibility 8 miles    
Events Snow    
Averages and records for this station are not official NWS values.
T = Trace of Precipitation, MM = Missing Value Source: NWS Daily Summary

Daily Weather History Graph

Daily Weather History Graph

Search for Another Location

Airport:

Trip Planner

Search our weather history database for the weather conditions in past years. The results will help you decide how hot, cold, wet, or windy it might be!

Date:

Astronomy

Mar. 12, 2014 Rise Set
Actual Time 8:30 AM AKDT 8:00 PM AKDT
Civil Twilight 7:48 AM AKDT 8:42 PM AKDT
Nautical Twilight 6:58 AM AKDT 9:32 PM AKDT
Astronomical Twilight 6:06 AM AKDT 10:24 PM AKDT
Moon 3:57 PM AKDT (3/12) 6:54 AM AKDT (3/12)
Length of Visible Light 12h 54m
Length of Day
11h 29m
Waxing Gibbous, 86% of the Moon is Illuminated
Mar 12
Waxing Gibbous
Mar 16
Full
Mar 23
Last Quarter
Mar 30
New
Apr 7
First Quarter

Hourly Weather History & Observations

Time (AKDT) Temp. Windchill Dew Point Humidity Pressure Visibility Wind Dir Wind Speed Gust Speed Precip Events Conditions
12:53 AM 32.0 °F 28.7 °F 30.9 °F 96% 29.16 in 10.0 mi ESE 3.5 mph - N/A   Scattered Clouds
1:53 AM 30.9 °F - 30.0 °F 96% 29.17 in 10.0 mi Calm Calm - N/A   Overcast
2:53 AM 32.0 °F 28.7 °F 30.9 °F 96% 29.19 in 9.0 mi Variable 3.5 mph - 0.00 in Snow Light Snow
3:21 AM 33.8 °F 30.8 °F 32.0 °F 93% 29.19 in 9.0 mi East 3.5 mph - 0.00 in   Overcast
3:53 AM 32.0 °F 26.4 °F 32.0 °F 100% 29.21 in 4.0 mi ESE 5.8 mph - 0.01 in Snow Light Snow
3:59 AM 32.0 °F 26.4 °F 32.0 °F 100% 29.21 in 1.8 mi ESE 5.8 mph - 0.01 in Snow Light Snow
4:12 AM 32.0 °F 24.8 °F 32.0 °F 100% 29.22 in 2.0 mi South 8.1 mph - 0.02 in Snow Light Snow
4:15 AM 32.0 °F 22.5 °F 32.0 °F 100% 29.23 in 1.5 mi SSW 12.7 mph 23.0 mph 0.02 in Snow Light Snow
4:21 AM 30.2 °F 16.5 °F 30.2 °F 100% 29.23 in 0.8 mi SSW 24.2 mph 27.6 mph 0.03 in Snow Light Snow
4:37 AM 30.2 °F 17.4 °F 30.2 °F 100% 29.23 in 1.2 mi South 20.7 mph 29.9 mph 0.03 in Snow Light Snow
4:42 AM 30.2 °F 18.5 °F 30.2 °F 100% 29.23 in 2.5 mi South 17.3 mph - 0.03 in Snow Light Snow
4:49 AM 30.2 °F 17.1 °F 28.4 °F 93% 29.23 in 5.0 mi South 21.9 mph 28.8 mph 0.03 in Snow Light Snow
4:53 AM 30.9 °F 18.1 °F 28.0 °F 89% 29.24 in 8.0 mi South 21.9 mph 28.8 mph 0.03 in   Overcast
5:53 AM 30.0 °F 16.0 °F 26.1 °F 85% 29.29 in 10.0 mi South 25.3 mph - 0.00 in   Overcast
6:53 AM 28.0 °F 13.9 °F 24.1 °F 85% 29.32 in 10.0 mi South 23.0 mph 33.4 mph N/A   Overcast
7:53 AM 27.0 °F 15.6 °F 21.9 °F 81% 29.36 in 10.0 mi SSE 13.8 mph - N/A   Partly Cloudy
8:53 AM 25.0 °F 13.6 °F 21.0 °F 85% 29.40 in 10.0 mi South 12.7 mph - N/A   Clear
9:53 AM 27.0 °F 12.2 °F 21.0 °F 78% 29.44 in 10.0 mi South 24.2 mph - N/A   Clear
10:53 AM 27.0 °F 13.9 °F 21.9 °F 81% 29.49 in 10.0 mi SSW 18.4 mph - N/A   Scattered Clouds
11:53 AM 27.0 °F 16.1 °F 24.1 °F 89% 29.52 in 10.0 mi South 12.7 mph - N/A   Scattered Clouds
12:53 PM 28.0 °F 18.6 °F 23.0 °F 81% 29.53 in 10.0 mi SSW 10.4 mph - N/A   Clear
1:53 PM 28.0 °F - 21.0 °F 75% 29.56 in 10.0 mi Calm Calm - N/A   Clear
2:53 PM 28.9 °F 21.9 °F 21.0 °F 72% 29.57 in 10.0 mi NNW 6.9 mph - N/A   Scattered Clouds
3:53 PM 28.9 °F 21.1 °F 21.9 °F 75% 29.55 in 10.0 mi NNW 8.1 mph - N/A   Mostly Cloudy
4:53 PM 28.0 °F 17.0 °F 21.9 °F 78% 29.54 in 10.0 mi North 13.8 mph - N/A   Overcast
5:53 PM 28.0 °F 16.1 °F 21.9 °F 78% 29.52 in 10.0 mi NNE 16.1 mph - N/A   Overcast
6:53 PM 28.0 °F 16.1 °F 21.9 °F 78% 29.48 in 10.0 mi North 16.1 mph - N/A   Overcast
7:53 PM 28.0 °F 16.5 °F 23.0 °F 81% 29.44 in 10.0 mi NNE 15.0 mph - N/A   Overcast
8:53 PM 28.9 °F 18.2 °F 23.0 °F 78% 29.44 in 10.0 mi NNE 13.8 mph - N/A   Partly Cloudy
9:53 PM 28.9 °F 18.6 °F 23.0 °F 78% 29.42 in 10.0 mi NNE 12.7 mph - N/A   Clear
10:53 PM 30.0 °F 18.7 °F 24.1 °F 79% 29.39 in 10.0 mi NNE 16.1 mph - N/A   Scattered Clouds
11:53 PM 33.1 °F 22.2 °F 24.1 °F 70% 29.36 in 10.0 mi NNE 17.3 mph - N/A   Overcast